Jaipur / Sanganer, India

11:12 AM IST on March 25, 2017 (GMT +0530)
Jaipur / Sanganer

Weather History for 42348 - April, 2014

Change the Weather History Date:

Wednesday, April 16, 2014

  Actual Average Record
Temperature  
Mean Temperature 86 °F -  
Max Temperature 95 °F - - ()
Min Temperature 77 °F - - ()
Cooling Degree Days 21    
Growing Degree Days 36 (Base 50)    
Moisture  
Dew Point 50 °F    
Average Humidity 28    
Maximum Humidity 39    
Minimum Humidity 15    
Precipitation  
Precipitation 0.00 in - - ()
Sea Level Pressure  
Sea Level Pressure 29.82 in    
Wind  
Wind Speed 4 mph ()    
Max Wind Speed 21 mph    
Max Gust Speed 33 mph    
Visibility 1.6 miles    
Events Thunderstorm    
T = Trace of Precipitation, MM = Missing Value Source: Averaged Metar Reports

Daily Weather History Graph

Daily Weather History Graph

Search for Another Location

Airport or City:

Trip Planner

Search our weather history database for the weather conditions in past years. The results will help you decide how hot, cold, wet, or windy it might be!

Date:

Astronomy

Apr. 16, 2014 Rise Set
Actual Time 6:02 AM IST 6:51 PM IST
Civil Twilight 5:38 AM IST 7:15 PM IST
Nautical Twilight 5:10 AM IST 7:43 PM IST
Astronomical Twilight 4:42 AM IST 8:11 PM IST
Moon 7:59 PM IST (4/16) 6:34 AM IST (4/16)
Length of Visible Light 13h 36m
Length of Day
12h 48m
Full, 99% of the Moon is Illuminated
Apr 16
Full
Apr 22
Last Quarter
Apr 29
New
May 7
First Quarter
May 15
Full

Hourly Weather History & Observations

Time (IST) Temp. Heat Index Dew Point Humidity Pressure Visibility Wind Dir Wind Speed Gust Speed Precip Events Conditions
12:00 AM 84.2 °F - 41.0 °F 22% 29.86 in 1.9 mi Variable 2.3 mph - N/A   Haze
1:00 AM 84.2 °F - 44.6 °F 25% 29.86 in 1.9 mi Variable 2.3 mph - N/A   Haze
2:00 AM 80.6 °F - 48.2 °F 32% 29.86 in 1.9 mi Calm Calm - N/A   Haze
3:00 AM 80.6 °F - 44.6 °F 28% 29.83 in 1.9 mi Calm Calm - N/A   Haze
4:00 AM 80.6 °F - 46.4 °F 30% 29.83 in 1.9 mi East 3.5 mph - N/A   Haze
5:00 AM 78.8 °F - 46.4 °F 32% 29.80 in 1.9 mi East 3.5 mph - N/A   Haze
5:30 AM 79 °F - 48 °F 23% 29.76 in 1 mi East 4.6 mph - -   Haze
6:00 AM 80.6 °F - 48.2 °F 32% 29.83 in 1.9 mi East 4.6 mph - N/A   Haze
7:00 AM 80.6 °F - 48.2 °F 32% 29.83 in 1.9 mi East 4.6 mph - N/A   Haze
8:00 AM 84.2 °F - 50.0 °F 30% 29.86 in 1.9 mi ESE 3.5 mph - N/A   Haze
8:30 AM 84 °F - 55 °F 26% 29.86 in 2 mi NW 6.9 mph - -   Light Sandstorm
9:00 AM 80.6 °F - 48.2 °F 32% 29.95 in 0.7 mi Variable 20.7 mph 33.4 mph N/A   Scattered Clouds
10:00 AM 80.6 °F - 50.0 °F 34% 29.92 in 1.6 mi ENE 15.0 mph 26.5 mph N/A   Widespread Dust
11:30 AM 85 °F - 53 °F 23% 29.82 in 1 mi ESE 9.2 mph - -   Haze
12:00 PM 86.0 °F 84.2 °F 53.6 °F 33% 29.89 in 1.6 mi East 10.4 mph - N/A   Haze
1:00 PM 89.6 °F - 51.8 °F 27% 29.89 in 1.6 mi ENE 12.7 mph - N/A   Haze
2:00 PM 89.6 °F 87.3 °F 53.6 °F 29% 29.83 in 1.6 mi ENE 8.1 mph - N/A   Haze
2:30 PM 91 °F - 49 °F 15% 29.74 in 1 mi ESE 4.6 mph - -   Haze
3:00 PM 91.4 °F - 48.2 °F 23% 29.80 in 1.6 mi SSE 6.9 mph - N/A   Haze
4:00 PM 91.4 °F - 48.2 °F 23% 29.77 in 1.9 mi SSE 6.9 mph - N/A   Haze
5:30 PM 91 °F - 49 °F 15% 29.68 in 1 mi East 6.9 mph - -   Haze
7:00 PM 87.8 °F - 51.8 °F 29% 29.80 in 1.6 mi NNE 5.8 mph - N/A   Haze
8:00 PM 86.0 °F - 51.8 °F 31% 29.83 in 1.6 mi Variable 2.3 mph - N/A Thunderstorm Thunderstorm
8:30 PM 86 °F - 58 °F 28% 29.72 in 1 mi NE 4.6 mph - - Thunderstorm Thunderstorm
9:00 PM 84.2 °F - 51.8 °F 33% 29.80 in 1.6 mi East 4.6 mph - N/A Thunderstorm Thunderstorm
10:00 PM 82.4 °F 81.7 °F 55.4 °F 39% 29.80 in 1.6 mi ESE 4.6 mph - N/A   Haze
11:00 PM 80.6 °F 80.3 °F 53.6 °F 39% 29.80 in 1.6 mi Variable 2.3 mph - N/A   Haze
11:30 PM 81 °F - 53 °F 27% 29.73 in 1 mi Calm Calm - -   Haze